TIMESTAMP,CO2_1_1_1,H2O_1_1_1,TAU_1_1_1,TAU_SSITC_TEST_1_1_1,H_1_1_1,H_SSITC_TEST_1_1_1,LE_1_1_1,LE_SSITC_TEST_1_1_1,FC_1_1_1,FC_SSITC_TEST_1_1_1,WD_0_0_1,WS_0_0_1,WS_MAX_0_0_1,U_SIGMA_0_0_1,V_SIGMA_0_0_1,W_SIGMA_0_0_1,USTAR_0_0_1,MO_LENGTH_0_0_1,ZL_0_0_1,FETCH_MAX_0_0_1,FETCH_70_0_0_1,FETCH_80_0_0_1,FETCH_90_0_0_1,PA_0_0_1,RH_0_0_1,TA_0_0_1,VPD_0_0_1,T_SONIC_0_0_1,T_SONIC_SIGMA_0_0_1
[yyyymmddHHMMSS],[mmolCO2 mol-1],[mmolH2O mol-1],[kg m-1 s-2],[#],[W m-2],[#],[W m-2],[#],[umolCO2 m-2 s-1],[#],[Decimal degrees],[m s-1],[m s-1],[m s-1],[m s-1],[m s-1],[m s-1],[m],[#],[m],[m],[m],[m],[kPa],[%],[deg C],[hPa],[deg C],[deg C]
20240301003000,420.27022101194291,2.3276390650042216,0.21503026335625550,0,-25.003990613517793,0,-2.5368098762948096E-002,2,0.21866502741198054,0,114.53380947154676,2.7644356757874022,6.1759602689050501,0.83090633428105076,0.68767830050940115,0.50642345764742203,0.41818037798259627,245.51528952066903,7.7388255684990484E-002,107.43227418213777,196.42046097141844,235.06512529706532,294.27364302942738,94.978888328125009,49.826666666666668,-4.2876666666666665,2.2267441460088238,-4.1385258500841360,0.20176857962572384
20240301010000,420.33521605371266,2.3223989777551890,0.40332440676942760,0,-44.923100461613970,0,2.4002935850132765,0,0.44089979738323581,0,116.23612456951567,3.0676642879680580,7.0443761819039938,1.0063098346888077,0.85484303091366243,0.62276878896757160,0.57234680537058036,350.34276220955275,5.4232603180297496E-002,117.03636885676113,213.97980910552238,256.07918029349742,320.58074626648090,94.975897344835076,51.067999999999998,-4.6443333333333499,2.1140284800973026,-4.4929762598673051,0.16425453556736555
20240301013000,420.52763162975879,2.3134198382310109,0.33756304721215541,0,-30.315325454579309,0,1.3011599175977910,0,0.20534815255228517,1,117.67038524207663,3.0935946253026092,7.2462123508833196,0.95009244354367639,0.76302992988275864,0.58029180416412607,0.52332671297052791,396.79426887877111,4.7883756117971792E-002,115.28055889162485,210.76962850238644,252.23741400310999,315.77131075148799,94.953270741588412,52.243666666666670,-4.9996666666666556,2.0085293795485253,-4.8524786271474341,0.17289467881448045
20240301020000,420.79333899174821,2.3305555519985357,0.70839393102954562,0,-57.466469979515892,0,4.1052446725685883,0,0.86697037430622170,0,127.05392791580678,3.4904167480711599,9.8963469420683037,1.4383018503744176,1.1355166104100616,0.87086472532611880,0.75807728085108428,636.06736280121845,2.9871050003767941E-002,112.06374326196729,204.88826358064813,245.19892231334984,306.95995437371602,94.912785913411440,53.169333333333334,-5.1396666666666420,1.9488112821851820,-4.9829615359835771,0.15106652395432763
20240301023000,420.93280972081203,2.3462146168854567,0.90809272531088070,0,-60.915077309186259,0,7.9402742497519210,0,1.2225494637496106,0,125.47112670465847,4.0427430700217224,9.7971865390519799,1.6646852523404172,1.2824806130368505,0.98549061946194205,0.85824456075048572,870.50624151274303,2.1826379977451162E-002,112.10416592047945,204.96216909255403,245.28736833537010,307.07067829789861,94.877865457803210,54.067333333333337,-5.2769999999999868,1.8916284198052591,-5.1192583001979983,0.15115900810708174
20240301030000,421.26534997346954,2.3511787297950937,1.1437645411734978,0,-51.785087422797318,0,5.5285769465075703,0,1.3288072066806009,0,125.33120054218301,4.5670378535891194,11.165218415498430,1.9639135704878685,1.5205211522489916,1.0864817799950752,0.96264228282439335,1444.8003247424137,1.3150606125027980E-002,113.66032368483511,207.80732179685947,248.69228946028366,311.33323550365128,94.864242320746541,55.619333333333330,-5.6233333333333348,1.7802160349786591,-5.4673922822739769,0.16194836438598501
20240301033000,422.29705008426856,2.3880099810317521,1.3924888813863328,0,-60.574293248368292,0,7.5222515652261386,1,2.2343135381303467,1,130.14470472251736,5.1372721323472099,12.358636230246317,2.0189956398579234,1.5547074942082137,1.2001897759521911,1.0616080929841452,1656.4902570216311,1.1470034260365644E-002,113.50796511982419,207.52876174774747,248.35892422672586,310.91590178979465,94.853759954427076,57.854333333333336,-5.9376666666666438,1.6505329633066281,-5.7688514531453166,0.13689463273874658
20240301040000,422.85809457478382,2.4342570041370957,1.1604625542407834,0,-43.108503847356417,0,4.4175682783430839,0,1.1431704734053421,0,134.20604895726885,4.4143451499620712,11.915496102708797,1.9761018936922308,1.6712198449056650,1.1548106118747226,0.96880054158481732,1768.7118427939934,1.0742281212968042E-002,108.80122503519284,198.92333973528434,238.06043193325689,298.02341150192365,94.832435019531246,60.092666666666666,-6.1863333333333230,1.5334550199916448,-6.0036014014349917,0.15685555801287240
20240301043000,423.22600814893332,2.4866952676322214,1.2884164983357327,0,-54.842170893075888,0,3.3466127156086993,1,1.1354443733820285,0,135.09682425068689,4.5196963582871907,12.219022970390716,1.9649303270911962,1.5896517632587426,1.1648506227212929,1.0206268847602988,1625.3059927969355,1.1690106407165538E-002,112.65029001045171,205.96065810636833,246.48230466725332,308.56659678911291,94.810719903645833,62.151666666666664,-6.3509999999999991,1.4361191456567894,-6.1583409237331352,0.12720441209698899
20240301050000,423.67742607617367,2.5942807138995283,1.0256369190037060,0,-51.765242192169168,0,-5.8925448871914847,2,0.31019041215717796,2,140.16271114877858,4.1648760661412698,10.942754483874428,1.7291503356748825,1.5046608283885710,1.1098959984040713,0.91081225804869537,1223.5467706799932,1.5528625840302485E-002,106.89863626494405,195.44480066370389,233.89750909585058,292.81192609988534,94.785034513020832,64.667666666666662,-6.3196666666666488,1.3438733662028646,-6.0977689658270720,0.12850966063961580
20240301053000,423.93819313777436,2.6950452621354630,1.1387530295634578,0,-59.250116892278776,0,3.2484504249292327,1,1.5090512919912999,0,144.80685809156259,3.9901881489042266,10.714793482946195,1.8104888506202494,1.5887048288859278,1.1196106394548595,0.96009187943064955,1251.8356618757439,1.5177711083522338E-002,110.72648753764125,202.44333362074170,242.27296559516668,303.29700376920567,94.760122066893587,66.528999999999996,-6.1959999999999695,1.2851855867971567,-5.9655673142306114,0.20512024666118900
20240301060000,424.00282723461123,2.7790932626824403,1.0662284623101645,0,-74.675205848882854,0,-0.16633536738435617,2,1.0487825719697770,0,148.06579093565620,4.1237659197441596,11.288563946433291,1.8679937383539824,1.5434324628318583,1.1314351044895572,0.92961383461572067,901.52100830961365,2.1075493332790688E-002,107.00233207065433,195.63438966862324,234.12439871303155,293.09596497689449,94.741606697482638,67.123000000000005,-5.9130000000000109,1.2899746303004622,-5.6899987080892060,0.24372371168861678
20240301063000,423.93574909080377,2.8605980122306285,0.69119004013853313,0,-62.788216005751501,0,3.1845630077450018,1,1.0881439190066975,0,148.15085639646682,3.8404202715751450,10.400636621269269,1.5828345335359200,1.3491140477549353,0.97047097468518451,0.74917734527566071,561.12852711428354,3.3860335167258962E-002,101.79737237433230,186.11806330699429,222.73578656182812,278.83877398546809,94.721593009548613,66.808333333333337,-5.4746666666666783,1.3465445544970891,-5.2384433568318514,0.21167635116094974
20240301070000,424.25471566620155,2.8729479414311903,0.70302819815107953,0,-60.699601335824781,0,1.5890650867024427,0,1.0980349634508986,0,147.15623059185492,3.4659388940628237,8.8933573133186705,1.4182642283591558,1.1411849921962560,0.84828342757071584,0.75527818482358289,594.61905749752361,3.1953230829772264E-002,114.10578589568651,208.62176879118110,249.66697449982181,312.55342551281876,94.696440600477430,68.503333333333330,-5.7506666666666888,1.2512116540039124,-5.5431762729220964,0.18089871788596129
20240301073000,423.98787753963097,2.9064661467686710,0.63448806358696064,0,-106.86923656446933,0,0.22739442655563000,1,1.7234549849549012,0,149.96965329895389,3.5933101479152674,9.0870769188382390,1.4267202863623294,1.2065169401494120,0.90586389595265171,0.71797189435621966,290.07807254199741,6.5499607859015901E-002,103.96579866451960,190.08263814955075,227.48037008182473,284.77842953974192,94.677468715494797,67.816999999999993,-5.4686666666666497,1.3062200250060676,-5.2009458253648972,0.33153870706997790
20240301080000,423.75032349554078,2.9325503520984828,0.59987819360350692,0,-87.357536092284661,0,1.9576624019454305,0,1.1572610244657469,0,155.34970927753699,3.4774611800056805,8.4978118049673217,1.2757396836994011,1.0671232016482732,0.83535751569981520,0.69878203181226362,327.10428970205948,5.8085450414930385E-002,108.55013695190307,198.46427063859377,237.51104347240161,297.33564234173917,94.650719424591600,66.194666666666663,-5.0356666666666570,1.4179081518108012,-4.7951392309688003,0.28586186727962465
20240301083000,423.85201052277245,2.9454787014938701,0.53922074798824082,0,-83.495100184231887,0,1.3670996688601089,0,1.2417327279988992,0,151.19354921437321,3.3960739906892923,7.9971417833221921,1.2354654408999564,1.1122796093600691,0.80694706762772772,0.66258235204037375,291.67220829305614,6.5141619461083003E-002,106.94752856773788,195.53419138661118,234.00448696046141,292.94584969192289,94.612381823784716,66.725333333333339,-5.0883333333333098,1.3900912297741912,-4.8494522738986348,0.24549772348363472
20240301090000,423.79566673935926,2.9527342877404026,0.38529591989158751,0,-66.927236650481007,0,0.67041966676167286,0,0.99883072546315055,0,154.00038799809258,3.3005199107701704,7.4949138094496535,1.1037932677985103,0.99791066121102623,0.73437123200039733,0.56017996450249674,219.84337998155803,8.6425163230268068E-002,100.82876149554437,184.34713369797473,220.61643612156496,276.18559872553072,94.580844902777784,66.862333333333339,-5.0873333333333335,1.3844728148505345,-4.8326893530951338,0.20770515643290027
20240301093000,423.45758372134185,2.9658298358755304,0.47544181124351165,0,-90.429755523728318,0,1.8235508649228751,0,1.1954188112673392,0,154.79733147660787,3.4304395706802442,7.7140046907879052,1.2097330150929473,0.95555107649383164,0.73114980228759241,0.62277125993653448,223.52652856215326,8.5001096389849332E-002,110.13177937826656,201.35601743296556,240.97172582282795,301.66800598496616,94.556018260855978,65.336666666666673,-4.7273333333333198,1.4882134816570551,-4.4573280293351445,0.27698079184054314
20240301100000,423.26949816482130,2.9779523802485808,0.38104677941215193,0,-89.292862873611341,0,1.6179430682980351,0,1.0642247722728440,0,157.04363434040454,3.3772757181170343,7.2668510950663379,1.1553200022550441,0.99390580478331736,0.74083313353828795,0.55792626270789580,162.75884732286025,0.11673712558500873,99.802179493862852,182.47021438736431,218.37024307864507,273.37363157875785,94.547988294053823,63.856333333333332,-4.3706666666666933,1.5940970263727787,-4.1126460995144498,0.27285506846078050
20240301103000,423.29634144771620,2.9775809119282517,0.29186232538096757,0,-62.789724223192103,0,1.3165426016549651,0,0.80158233873070617,0,154.23892280952330,3.1273370898064807,6.9079244330518836,1.0109320797342083,0.83643036748520760,0.63646072968314393,0.48829678747225147,155.17200065218324,0.12244477044920200,101.29422909048129,185.19815691479468,221.63489355773606,277.46058658106108,94.553872631510416,63.728999999999999,-4.3449999999999704,1.6028090922805940,-4.1109251980251429,0.22600658243068417
20240301110000,423.50969020325778,2.9743028632360526,0.29433414053018631,0,-59.957001816933108,0,1.2863766677359978,0,0.78575106713934784,0,149.37322851299575,2.9230037032271459,6.7890508060795991,0.99262506980535525,0.85328517886162414,0.62669422872961111,0.49010481927527860,164.31703138866004,0.11563013182157111,102.85881626618783,188.05872127147236,225.05825849434828,281.74623325043814,94.555935803819452,64.987666666666669,-4.6186666666666838,1.5155859684434547,-4.3869956851535221,0.20795709640056961
20240301113000,423.55921846963821,2.9768695600702682,0.35068920873229803,0,-71.395403184907053,0,0.95888945714127904,0,0.93419661166868317,0,151.28505445403940,2.8147293697964768,6.4091595636524694,1.0154808634457950,0.87113064548188268,0.67395295469205330,0.53491468130236175,179.39939839462824,0.10590893932768572,104.08277165320285,190.29650207948504,227.73631058434623,285.09883667789393,94.550530584090410,65.393000000000001,-4.6903333333333421,1.4899542935873167,-4.4345224638133800,0.21787321063272053
20240301120000,423.52024370800564,2.9742426856039681,0.35732380228286120,0,-85.028688755219449,0,1.7490089378710463,0,1.2942744293072090,0,150.53146218286093,3.0166028478922877,6.7795683495432311,1.0563754771758569,0.89900862976583495,0.66282955978013181,0.54003102987677509,154.97697019987834,0.12259886082103130,106.28411905163782,194.32126720756716,232.55292650330361,291.12866824799124,94.531895266276038,65.189333333333337,-4.6633333333333553,1.5017825287022601,-4.4151581836276819,0.25175148870260949
20240301123000,423.45398559645008,2.9747308920986897,0.37785126514615353,0,-75.798898244765368,0,1.0712154171424872,0,1.0037018771244630,0,149.41742213111510,3.2574915477491069,6.7472809206387225,1.0467694805118848,0.89443728719613225,0.66801716287517876,0.55539402720512054,189.09307028904817,0.10047962080766128,108.02039655233091,197.49573623614091,236.35195515980351,295.88460131678909,94.519158213324658,65.046999999999997,-4.6340000000000146,1.5112669800892133,-4.3692499355739756,0.23939903313856759
20240301130000,423.30347845100488,2.9794558099045725,0.34630561305704011,0,-60.759285218646092,0,1.3678870242251728,0,0.71498530656581383,0,148.60608986344553,3.3290993117031435,7.2811890338338188,1.0680712913229213,0.87744010947716422,0.62904835119157432,0.53196871929432166,207.26403160015343,9.1670512501919002E-002,109.50061383442204,200.20204551889222,239.59071617022144,299.93914577646973,94.501500825954864,64.085333333333338,-4.4180000000000064,1.5783573100536825,-4.1659314515854931,0.24532152046719471
20240301133000,423.15840033726084,2.9972127550647882,0.44927793982632463,0,-66.713952182982979,0,3.0663165507133434,0,0.91588342912225829,0,145.48036670579549,3.1205326383311442,7.2218907604359242,1.1584375806514315,0.95162449490427636,0.72510934362650536,0.60646878093317669,279.66877796553882,6.7937508570732219E-002,108.53726118222961,198.44072962511459,237.48287089172575,297.30037361381301,94.487364246527790,62.327666666666666,-3.9713333333333480,1.7121800691071059,-3.7483406253390967,0.22525630619290093
20240301140000,423.26075058464028,3.0294060567657737,0.50166519221691697,0,-22.191628045301510,0,5.7346561751431242,0,0.88799991118273780,0,148.67096772349717,3.2027810004943440,7.4995059576627012,1.2359412228741373,1.1046195625376420,0.85147351112950564,0.64169005570426085,995.81819470780431,1.9079787958257814E-002,99.856935426890146,182.57032569644736,218.49005074683237,273.52361656243323,94.472887771484366,59.951666666666668,-3.3116666666666674,1.9123366366169376,-3.1137284240721783,0.25062401465645678
20240301143000,423.46145565762686,3.0953890134255388,0.59157815149262294,0,10.386320147335336,1,7.1147568639776129,0,0.50170324033300884,1,149.07205007761766,2.6257474659988631,8.6311611247419453,1.3735194176478127,1.0821892871458325,0.81119055668810280,0.69822690007587485,-2740.5834256964472,-6.9328303681073494E-003,111.05902387501349,203.05131610248333,243.00056534491890,304.20787231576821,94.446069661675338,56.841333333333331,-2.3093333333333135,2.2203394138158554,-2.1611883273654939,0.35134020293458157
20240301150000,423.32890839975551,3.1755518465920041,0.82572400089722886,0,23.254988895636636,1,13.212758820990562,0,1.4481058815299941,0,153.26489629245484,3.5540184854031240,8.5814519131962754,1.5000346775211060,1.2807276844763005,0.98774968676249042,0.82730980937000287,-2035.6083891219448,-9.3338188727919366E-003,108.66055484772124,198.66614976813105,237.75264122980860,297.63809406497990,94.408700425347234,52.349666666666664,-0.84899999999998954,2.7296045212894695,-0.72008264414455425,0.47432760028222959
20240301153000,422.27411340888182,3.2903995341594841,1.0634155776772753,0,11.156151443168575,2,18.318968663072067,0,4.3667627295761422,0,161.94333732332740,3.8750974208137894,12.106685681374231,1.9548620225484334,1.6156530252322707,1.1388216063538796,0.94258432617916454,-6274.2294759894221,-3.0282602943851960E-003,107.63326442596123,196.78793523967818,235.50489814193452,294.82418644585943,94.374662087890641,46.723666666666666,1.2029999999999745,3.5417502601205801,1.3034456566703625,0.76728860112592467
20240301160000,420.78864233758634,3.4805264600430106,0.91129789283505758,0,98.021629343299608,0,23.045943685947599,0,1.9683791657767775,0,165.13996480375641,3.8597680573717783,11.254822584643058,1.9662435283612303,1.7299870114536207,1.1709441514120604,0.87589688876332483,-572.86285410040978,-3.3166751629997875E-002,99.263215934318325,181.48481710690601,217.19097420791360,271.89732688973692,94.336219449986444,42.939000000000000,3.1683333333333508,4.3644280596044336,3.1880704153680881,0.41226417217798017
20240301163000,420.09351703856680,3.8075465666136172,1.3251920508936483,0,173.29225914963860,0,21.106898611325754,0,1.2056579046709397,1,163.43722429160155,4.6591949040751954,12.197615450322594,2.1548968196137248,1.9067133974310950,1.3597148390179277,1.0585174949461693,-571.85453128358404,-3.3225232923052336E-002,102.48376273622885,187.37300380151913,224.23762981749977,280.71890352636512,94.313992648654533,43.478999999999999,4.2620000000000005,4.6694757395195801,4.2313057734172048,0.32010820853093103
20240301170000,419.59551732572140,4.1331328611158034,1.8111274391347973,0,209.18966621017830,0,27.762205043902910,1,1.2815487860346035,1,163.01821800918739,5.6026781351950543,16.536741594729669,2.5321817899662840,2.0573771701013941,1.5317454342149697,1.2391710379497198,-759.93955565085241,-2.5001988459105007E-002,105.68433714024516,193.22467458291203,231.24058520525568,289.48577267091883,94.291995380208334,45.037666666666667,4.9279999999999973,4.7572935553907927,4.8546370442708735,0.30794122870560031
20240301173000,419.00236269994787,4.4340384473994057,2.4716958752054512,0,188.65522952906943,0,13.263446986865109,1,2.1089206386280548,0,164.68655732780817,4.7108674598104976,14.897479820680166,2.7639061209023725,2.1254820033417730,1.5814625171335626,1.4503190367307863,-1350.7791647394447,-1.4065955780170003E-002,116.83652066845664,213.61442287899123,255.64190630128402,320.03333111704927,94.264463327004137,45.294333333333334,5.8530000000000086,5.0495465036925724,5.7426236605772374,0.34322664424994626
20240301180000,418.46036494814138,4.7108208532780420,2.3789704086662598,0,210.21431199279434,0,24.504093476534049,0,1.6061650159478413,0,165.64351186299859,5.8598176422625237,16.122351788214893,2.9563364595106809,2.3120476341242915,1.6351263129008762,1.4249268736987846,-1149.4727677781027,-1.6529317207511097E-002,112.16256067035724,205.06893331938087,245.41513784691782,307.23063056467453,94.232935582031232,45.866000000000000,6.5433333333333508,5.2407692796096956,6.4137032530042575,0.34938560642543492
20240301183000,418.39898677134045,4.6317303709721198,2.0937203926658801,0,213.76101428653089,0,40.200601805430637,0,1.3987028103866230,0,166.35310651923174,5.7352593816644326,18.988695492870541,2.9593561341646279,2.3647289085258199,1.6629583350724568,1.3384702566459474,-936.63128443627897,-2.0285463784647489E-002,105.25355784554732,192.43707264219503,230.29802683855991,288.30580144386033,94.199073789062510,43.204000000000001,7.1619999999999777,5.7372024430741373,7.0170044225056927,0.35304627334673905
20240301190000,418.31119319066056,4.4416697005662158,2.0875806201886209,0,183.39303171630411,0,46.310146506121598,0,1.0134346829112695,0,163.51418555419190,5.6799622896345587,14.493943115786669,2.6712465237744349,2.2267331680303482,1.6548874641131901,1.3381860287048786,-1090.7995404348592,-1.7418415846073277E-002,105.64606364328147,193.15469842375660,231.15684161490708,289.38093563317830,94.173398263237843,39.623666666666665,7.8106666666666911,6.3753356479871313,7.6417888446384268,0.28584096273427362
20240301193000,418.03597064033681,4.4918128928213159,1.7904807189315732,0,159.96866054921355,0,38.713359409407474,0,0.66086286600726740,1,164.73394317878183,5.7259348311643290,16.659229341402732,2.6907438732455637,2.3643221597836428,1.6062920802644374,1.2405546587104290,-996.08974089564504,-1.9074586575819907E-002,101.83287578692891,186.18297486845356,222.81346912225075,278.93602333296928,94.143081390625014,38.799999999999997,8.2796666666666852,6.6718495168243219,8.1276237640381623,0.27142450038574734
20240301200000,417.73826862909658,4.6209503472265476,2.3235428338018362,0,162.69808435149119,0,36.211741541705983,0,1.1270138360814792,0,165.24046777069313,5.8853684302414475,16.478887909911819,3.0437037467363175,2.3131587263247062,1.6554741908078539,1.4147986883238677,-1452.3445992197724,-1.3082294663544153E-002,110.42634230385983,201.89457240697672,241.61623857785966,302.47485947360008,94.103470412326402,38.566666666666670,8.7806666666666615,6.9285985318390004,8.6354420318603502,0.22998051847479012
20240301203000,417.66139339817363,4.7093439051949249,2.8414427374205107,0,165.62537091331652,0,95.139905132115629,1,2.6568501406970628,0,167.72618652351596,5.3195563538063695,20.416155253532988,3.2128263961791537,2.2469458886339000,1.7022050350955960,1.5656999592689027,-1933.3656924025508,-9.8274217209208467E-003,117.11492250733862,214.12343023217989,256.25105810075888,320.79591688540967,94.084683136885005,38.379333333333335,9.1303333333333399,7.1158171261856387,8.9576499539648466,0.25545530683504863
20240301210000,417.43368334746464,4.1916612650143437,1.8868651597134642,0,92.675600570027811,0,39.902396130676024,0,1.4096817702773503,0,177.07364070876986,5.6552422814340950,17.518370926962969,2.8045602345141609,2.4209483526545248,1.6260198950381684,1.2761230840524169,-1870.8616314952633,-1.0155748388946586E-002,103.14977086637771,188.59067907582977,225.69487612224506,282.54320297676907,94.099333558404425,33.691666666666663,9.3376666666666779,7.7648813326131085,9.1330954865914009,0.22299039017314462
20240301213000,417.72851081400501,3.8352827201869877,1.7740546733566729,0,95.537752096477064,0,77.493885107261960,1,0.91495389890539069,0,177.50658161481869,5.6962806505541286,16.325840674427134,2.9026276068872585,2.2354862683102108,1.5353991621473457,1.2375156917634005,-1655.0635743413295,-1.1479921553805863E-002,105.37035227709787,192.65061011274281,230.55357665257466,288.62571948636270,94.108949455078147,30.570666666666668,9.4633333333333667,8.1994151097235441,9.2200566024780528,0.18200701754621282
20240301220000,417.89987501803881,3.5536816619812739,1.7199099208478519,0,49.810657186814709,0,41.071801996258309,0,0.82141577342234384,0,168.98459781701771,5.5444993137560301,17.356932413875111,2.8011295163632077,2.0772516606502238,1.5112942583578537,1.2181715411250118,-3026.8303091647649,-6.2771936512169167E-003,105.37617574450063,192.66125726845476,230.56631857864033,288.64167086578499,94.069120624565954,28.765000000000001,9.2286666666666406,8.2807778698547363,8.9777846179538301,0.13821366199839868
20240301223000,417.96199350584192,3.5339117169648429,1.6423595664308124,0,-8.3594650938210044E-002,1,40.851050956674108,0,1.5131987900834696,0,165.85045511305017,5.6728825586010725,17.194554819073247,2.7810557275814389,2.1284612893674222,1.4972581215691143,1.1902866691419698,1682189.0219991284,1.1294806797288590E-005,104.21705907081758,190.54202230765992,228.03013559073031,285.46667071934320,94.043629805338540,28.837333333333333,9.1046666666666738,8.2034904128259925,8.8841570434569803,0.14253097404483500